Regional Weather Roundup
Issued by NWS New Orleans/Baton Rouge, LA

Home | Current Version | Previous Version | Text Only | Print | Product List | Glossary On
Versions: 1 2 3 4 5 6 7 8 9 10 11 12 13 14 15 16 17 18 19 20 21 22 23 24 25 26 27 28 29 30 31 32 33 34 35 36 37 38 39 40 41 42 43 44 45 46 47 48 49 50
627
ASUS44 KLIX 180610
RWRLIX
NEW ORLEANS REGIONAL WEATHER ROUNDUP
NATIONAL WEATHER SERVICE NEW ORLEANS LA
1200 AM CST THU DEC 18 2014

NOTE: "FAIR" INDICATES FEW OR NO CLOUDS BELOW 12,000 FEET WITH NO
      SIGNIFICANT WEATHER AND/OR OBSTRUCTIONS TO VISIBILITY.
      SKY/WX - SKY CONDITION AND SIGNIFICANT WEATHER.
      TMP - AIR TEMPERATURE.     DP    - DEWPOINT TEMPERATURE.
      RH  - RELATIVE HUMIDITY.   PRES  - PRESSURE.
      HI  - HEAT INDEX.          WCI   - WIND CHILL INDEX.

*  THESE STATIONS ARE NOT NWS OR FAA STATIONS AND ARE NOT UNDER
   NWS QUALITY CONTROL.

LAZ038-040-048-061>063-065>067-069-180700-
SOUTHEAST LOUISIANA

CITY           SKY/WX    TMP DP  RH WIND       PRES   REMARKS
N.O. AUDUBON     N/A     53  47  79 MISG        N/A
6HR MIN TEMP:  50; 6HR MAX TEMP:  56;

N.O. INTL ARPT CLOUDY    52  41  66 NE3       30.17F
6HR MIN TEMP:  50; 6HR MAX TEMP:  55;

N.O. LAKEFRONT CLOUDY    54  46  74 E3        30.19F
6HR MIN TEMP:  53; 6HR MAX TEMP:  55;

N.O. DOWNTOWN*   N/A     55  39  54 CALM      30.18F
6HR MIN TEMP:  55; 6HR MAX TEMP:  55;

SLIDELL        CLOUDY    45  41  86 CALM      30.18F
6HR MIN TEMP:  44; 6HR MAX TEMP:  49;

BATON ROUGE    PTCLDY    45  40  82 CALM      30.18S
6HR MIN TEMP:  45; 6HR MAX TEMP:  51;

BOOTHVILLE     CLOUDY    55  49  80 NE5       30.18F
6HR MIN TEMP:  53; 6HR MAX TEMP:  55;

BELLE CHASSE   CLOUDY    47  44  90 E5        30.17F
6HR MIN TEMP:  46; 6HR MAX TEMP:  51;

BOGALUSA*        N/A     44  41  89 CALM      30.21S
GALLIANO*        N/A     55  48  76 MISG      30.18R
6HR MIN TEMP:  52; 6HR MAX TEMP:  56;

NEW ROADS*       N/A     46  41  81 CALM      30.18S
6HR MIN TEMP:  46; 6HR MAX TEMP:  53;

GONZALES*        N/A     47  43  84 CALM      30.17F
6HR MIN TEMP:  46; 6HR MAX TEMP:  53;

HAMMOND*       NOT AVBL
HOUMA*         CLOUDY    49  46  90 CALM      30.17S
6HR MIN TEMP:  47; 6HR MAX TEMP:  52;

PORT FOURCHON* CLEAR     59  54  82 E7        30.19S

$$

MSZ070-080>082-180700-
SOUTHERN MISSISSIPPI

CITY           SKY/WX    TMP DP  RH WIND       PRES   REMARKS
MCCOMB         CLEAR     43  39  86 CALM      30.18F
6HR MIN TEMP:  42; 6HR MAX TEMP:  51;

GULFPORT       CLOUDY    47  43  86 SE3       30.17F
6HR MIN TEMP:  45; 6HR MAX TEMP:  48;

BILOXI         CLOUDY    50  44  80 E6        30.17F
6HR MIN TEMP:  49; 6HR MAX TEMP:  51;

PASCAGOULA     CLOUDY    41  40  96 CALM      30.19F
6HR MIN TEMP:  38; 6HR MAX TEMP:  44;


$$

COASTAL OBSERVATIONS
LAKE AND NEARSHORE STATIONS

STATION/POSITION TIME  TEMP    WIND        PRES    WAVE
                       AIR SEA DIR/SP/G            HT/PER
                 (UTC) (F)     (DEG/KT/KT) (MB)    (FT/S)
PASCAGOULA       0600   50      50/  3/  4 1021.7
WAVELAND YACHT   0600   53     100/  5/  8 1020.8
GRAND ISLE       0600   58 62   80/  7/ 11 1022.0
SOUTHWEST PASS   0600   57                 1021.5
NEW CANAL        0600   52 57   CALM  /  2 1022.3
SHELL BEACH      0600   56 59   80/  8/  9 1021.8

OFFSHORE STATIONS

STATION/POSITION TIME  TEMP    WIND        PRES    WAVE
                       AIR SEA DIR/SP/G            HT/PER
                 (UTC) (F)     (DEG/KT/KT) (MB)    (FT/S)
64 S DAUPHIN ISL 0600   62 74   70/  4/  8 1021.3    1/ 4

$$




USA.gov is the U.S. government's official web portal to all federal, state and local government web resources and services.